Weather History for Laramie, WY

Change the Weather History Date:

Saturday, March 2, 2013

  Actual Average Record
Temperature  
Mean Temperature 36 °F 27 °F  
Max Temperature 48 °F 39 °F 63 °F (2009)
Min Temperature 23 °F 16 °F -25 °F (2002)
Degree Days  
Heating Degree Days 29 38  
Month to date heating degree days 67 76  
Since 1 July heating degree days 5971 6252  
Cooling Degree Days 0 0  
Month to date cooling degree days 0 0  
Year to date cooling degree days 0 0  
Moisture  
Dew Point 22 °F    
Average Humidity 62    
Maximum Humidity 81    
Minimum Humidity 42    
Precipitation  
Precipitation 0.00 in 0.02 in 0.34 in (1951)
Month to date precipitation 0.00 0.03  
Year to date precipitation 0.25 0.64  
Sea Level Pressure  
Sea Level Pressure 30.22 in    
Wind  
Wind Speed 14 mph (WSW)    
Max Wind Speed 25 mph    
Max Gust Speed 30 mph    
Visibility 10 miles    
Events      
T = Trace of Precipitation, MM = Missing Value Source: NWS Daily Summary

Daily Weather History Graph

Daily Weather History Graph

Search for Another Location

Airport:

Trip Planner

Search our weather history database for the weather conditions in past years. The results will help you decide how hot, cold, wet, or windy it might be!

Date:

Astronomy

Mar. 02, 2013 Rise Set
Actual Time 6:35 AM MST 5:55 PM MST
Civil Twilight 6:07 AM MST 6:22 PM MST
Nautical Twilight 5:35 AM MST 6:54 PM MST
Astronomical Twilight 5:03 AM MST 7:26 PM MST
Moon 11:41 PM MST (3/2) 9:01 AM MST (3/2)
Length of Visible Light 12h 15m
Length of Day
11h 19m
Waning Gibbous, 73% of the Moon is Illuminated
Mar 2
Waning Gibbous
Mar 4
Last Quarter
Mar 11
New
Mar 19
First Quarter
Mar 27
Full

Hourly Weather History & Observations

Time (MST) Temp. Windchill Dew Point Humidity Pressure Visibility Wind Dir Wind Speed Gust Speed Precip Events Conditions
12:53 AM 25.0 °F 15.5 °F 19.0 °F 78% 30.33 in 10.0 mi WSW 9.2 mph - N/A   Clear
1:53 AM 26.1 °F 16.8 °F 19.9 °F 78% 30.32 in 10.0 mi WSW 9.2 mph - N/A   Clear
2:53 AM 26.1 °F 16.8 °F 19.9 °F 78% 30.32 in 10.0 mi West 9.2 mph - N/A   Clear
3:53 AM 25.0 °F 15.5 °F 19.0 °F 78% 30.33 in 10.0 mi WSW 9.2 mph - N/A   Clear
4:53 AM 25.0 °F 14.2 °F 19.0 °F 78% 30.35 in 10.0 mi West 11.5 mph - N/A   Clear
5:53 AM 25.0 °F 14.8 °F 18.0 °F 75% 30.35 in 10.0 mi WSW 10.4 mph - N/A   Clear
6:53 AM 25.0 °F 17.1 °F 18.0 °F 75% 30.36 in 10.0 mi SW 6.9 mph - N/A   Clear
7:53 AM 32.0 °F 19.8 °F 21.9 °F 66% 30.33 in 10.0 mi WSW 20.7 mph 25.3 mph N/A   Clear
8:53 AM 35.1 °F 24.1 °F 24.1 °F 64% 30.31 in 10.0 mi West 19.6 mph - N/A   Clear
9:53 AM 37.0 °F 26.4 °F 25.0 °F 62% 30.30 in - West 20.7 mph - N/A   Clear
10:53 AM 39.9 °F 31.4 °F 25.0 °F 55% 30.26 in 10.0 mi WSW 16.1 mph - N/A   Clear
11:53 AM 43.0 °F 36.0 °F 25.0 °F 49% 30.22 in - West 13.8 mph - N/A   Clear
12:53 PM 45.0 °F 40.6 °F 25.0 °F 46% 30.22 in 10.0 mi NNE 8.1 mph - N/A   Clear
1:53 PM 46.0 °F 37.8 °F 26.1 °F 46% 30.17 in 10.0 mi West 23.0 mph - N/A   Clear
2:53 PM 46.9 °F - 25.0 °F 42% 30.14 in 10.0 mi Variable 4.6 mph 20.7 mph N/A   Clear
3:53 PM 46.9 °F - 26.1 °F 44% 30.14 in 10.0 mi West 12.7 mph 18.4 mph N/A   Clear
4:53 PM 45.0 °F 37.4 °F 25.0 °F 46% 30.15 in 10.0 mi WSW 18.4 mph - N/A   Clear
6:53 PM 37.0 °F 27.4 °F 24.1 °F 59% 30.19 in 10.0 mi SW 17.3 mph - N/A   Clear
7:53 PM 37.0 °F 26.7 °F 23.0 °F 57% 30.12 in 10.0 mi SW 19.6 mph - N/A   Clear
8:53 PM 36.0 °F 27.5 °F 23.0 °F 59% 30.09 in 10.0 mi WSW 12.7 mph - N/A   Clear
9:53 PM 37.0 °F 28.1 °F 21.0 °F 52% 30.05 in - SW 15.0 mph - N/A   Clear
10:53 PM 37.9 °F 31.5 °F 19.9 °F 48% 29.99 in - SW 9.2 mph - N/A   Clear
11:53 PM 39.9 °F 30.0 °F 19.9 °F 45% 29.91 in - WSW 21.9 mph - N/A   Clear